Location: Montbazon
(47.2835°N, 0.6999°E)
Time: 13:13:54
(UTC+00:00)

NOSS 3-1 (A) - Visible Passes

Search period start: 14 February 2026 00:00
Search period end: 24 February 2026 00:00
Orbit: 613 x 1593 km, 63.4° (Epoch: 10 January)

Date Brightness Start Highest point End Pass type
(mag) Time Alt. Az. Time Alt. Az. Time Alt. Az.
14 Feb 3.7 05:36:09 10° SSW 05:40:36 52° ESE 05:45:55 10° NE visible
15 Feb 4.7 04:51:20 10° S 04:55:17 29° ESE 04:59:51 10° NE visible
16 Feb 5.4 04:07:16 10° SSE 04:10:09 16° ESE 04:13:17 10° ENE visible
16 Feb 2.9 05:55:14 10° SW 05:59:53 73° NW 06:05:37 10° NE visible
17 Feb 3.1 05:10:36 16° SSW 05:14:18 69° SE 05:19:51 10° NE visible
18 Feb 4.0 04:26:57 26° SSE 04:28:55 39° ESE 04:33:55 10° NE visible
18 Feb 3.6 06:15:03 10° WSW 06:19:36 39° NW 06:25:10 10° NNE visible
19 Feb 4.8 03:43:09 22° ESE 03:43:41 22° ESE 03:47:40 10° ENE visible
19 Feb 3.1 05:30:34 21° WSW 05:33:44 58° NW 05:39:28 10° NE visible
20 Feb 5.7 02:59:16 12° E 02:59:16 12° E 03:00:26 10° E visible
20 Feb 2.8 04:46:39 48° SW 04:48:02 88° SE 04:53:44 10° NE visible
21 Feb 3.5 04:02:41 52° ESE 04:02:41 52° ESE 04:07:53 10° NE visible
21 Feb 3.9 05:50:04 15° W 05:53:35 33° NNW 05:59:00 10° NNE visible
22 Feb 4.8 03:18:38 26° E 03:18:38 26° E 03:21:49 10° NE visible
22 Feb 3.4 05:06:00 35° W 05:07:37 47° NW 05:13:17 10° NE visible
23 Feb 5.8 02:34:31 12° ENE 02:34:31 12° ENE 02:35:16 10° ENE visible
23 Feb 2.8 04:21:54 73° NW 04:21:54 73° NW 04:27:34 10° NE visible
23 Feb 4.6 06:09:36 10° WNW 06:13:45 23° NNW 06:18:40 10° NNE visible
